AirNav   Air Wisconsin Up To $57,000 Bonus
 
 790 users online  

5O1 Vici Municipal Airport
Vici, Oklahoma, USA

GOING TO VICI?


FAA INFORMATION EFFECTIVE 05 DECEMBER 2019

Location

FAA Identifier: 5O1
Lat/Long: 36-08-27.8000N 099-18-12.1000W
36-08.463333N 099-18.201667W
36.1410556,-99.3033611
(estimated)
Elevation: 2268 ft. / 691.3 m (surveyed)
Variation: 08E (1985)
From city: 1 mile S of VICI, OK
Time zone: UTC -6 (UTC -5 during Daylight Saving Time)
Zip code: 73859

Airport Operations

Airport use: Open to the public
Activation date: 04/1968
Control tower: no
ARTCC: KANSAS CITY CENTER
FSS: MC ALESTER FLIGHT SERVICE STATION
NOTAMs facility: MLC (NOTAM-D service available)
Attendance: UNATNDD
Wind indicator: no
Segmented circle: no
Lights: SS-SR

Airport Communications

CTAF: 122.9

Nearby radio navigation aids

VOR radial/distance  VOR name  Freq  Var
MMBr104/30.4MITBEE VORTAC115.6010E

Airport Services

Airframe service: NONE
Powerplant service: NONE
Bottled oxygen: NONE
Bulk oxygen: NONE

Runway Information

Runway 16/34

Dimensions: 2565 x 50 ft. / 782 x 15 m
Surface: asphalt, in fair condition
Weight bearing capacity: 
Single wheel: 8.0
Runway edge lights: low intensity
RUNWAY 16  RUNWAY 34
Latitude: 36-08.671793N36-08.255422N
Longitude: 099-18.247735W099-18.156793W
Elevation: 2266.0 ft.2240.0 ft.
Traffic pattern: leftleft
Runway heading: 162 magnetic, 170 true342 magnetic, 350 true
Obstructions: 25 ft. pole, 235 ft. from runway, 75 ft. left of centerline, 1:1 slope to clear
12 FT ROAD AT 48 FT FM THLD. 2 FT FENCE 8 FT FM THLD. 7 FT STREET SIGNS 82 FT FM THLD.
none

Airport Ownership and Management from official FAA records

Ownership: Publicly-owned
Owner: CITY OF VICI
BOX 183
VICI, OK 73859
Phone 580-995-4442
Manager: DAVID TRIMBLE
BOX 183
VICI, OK 73859
Phone 580-995-4231
ALTERNATE NR 580-995-3182.

Airport Operational Statistics

Aircraft based on the field: 4
Single engine airplanes: 4
    
Aircraft operations: 100/year *
50% transient general aviation
50% local general aviation
* for 12-month period ending 20 October 2017

Additional Remarks

145 FT GRAIN ELEVATOR 3200 FT NE FM END OF RY 16.
30 FT DROP OFF ONLY 10 FT FM RY 34 THLD.
FOR CD CTC KANSAS CITY ARTCC AT 913-254-8508.

Instrument Procedures

There are no published instrument procedures at 5O1.

Some nearby airports with instrument procedures:

KWWR - West Woodward Airport (21 nm NW)
KMDF - Mooreland Municipal Airport (21 nm N)
1X1 - Higgins-Lipscomb County Airport (35 nm W)
1O4 - Thomas Municipal Airport (37 nm SE)
KCLK - Clinton Regional Airport (40 nm SE)
 
Loc | Ops | Rwys | IFR | FBO | Links
Com | Nav | Svcs | Stats | Notes

AirBoss

 
Area around 5O1 (Vici Municipal Airport)
 
Road maps at: MapQuest Bing Google
 
Aerial photo
WARNING: Photo may not be current or correct
Aerial photo of 5O1 (Vici Municipal Airport)
Photo by Lynn Evans
Taken in June 2006

Do you have a better or more recent aerial photo of Vici Municipal Airport that you would like to share? If so, please send us your photo.

 
Sectional chart

 
Airport distance calculator
Flying to Vici Municipal Airport? Find the distance to fly.

From to 5O1

Sunrise and sunset
Times for 11-Dec-2019
 Local
(UTC-6)
 Zulu
(UTC)
Morning civil twilight07:1113:11
Sunrise07:3913:39
Sunset17:2223:22
Evening civil twilight17:5023:50

Current date and time
Zulu (UTC)  12-Dec-2019 02:43:19
Local (UTC-6)  11-Dec-2019 20:43:19
 
METAR
KGAG 
24nm NW 
120153Z AUTO 17023G29KT 10SM CLR 07/02 A3013 RMK AO2 PK WND 17030/0126 SLP212 T00670017
KCLK 
41nm SE 
120215Z AUTO 19012KT 10SM CLR 06/00 A3026 RMK AO2
KELK 
43nm S 
120215Z AUTO 19014G21KT 10SM SCT017 06/03 A3021 RMK AO2 T00550032
KJWG 
46nm E 
120215Z AUTO 16009G14KT 10SM CLR 07/00 A3026 RMK AO2 T00661002
KOJA 
47nm SE 
120215Z AUTO 18010G17KT 10SM CLR 07/00 A3025 RMK AO2
KCSM 
48nm S 
120153Z AUTO 19017G25KT 10SM CLR 05/03 A3025 RMK AO2 SLP253 T00500028 $
KAVK 
49nm NE 
120215Z AUTO 17016KT 10SM CLR 06/02 A3017 RMK AO2
TAF
KWWR 
29nm N 
111720Z 1118/1218 19017G23KT P6SM SKC TEMPO 1206/1210 SCT015 AMD NOT SKED
NOTAMs
Click for the latest NOTAMs
NOTAMs are issued by the DoD/FAA and will open in a separate window not controlled by AirNav.

 

 
 

Would you like to see your business listed on this page?

 If your business provides an interesting product or service to pilots, flight crews, aircraft, or users of the Vici Municipal Airport, you should consider listing it here.  To start the listing process, click on the button below
 
Add a business
 

Other Pages about Vici Municipal Airport

Update a link
 
Copyright © AirNav, LLC. All rights reserved. Privacy Policy  Contact